Location: Kaarina
(60.4167°N, 22.4167°E)
Time: 22:02:57
(UTC+03:00)

Cosmos 1908 Rocket - Pass Details

Date: 24 August 2019
Orbit: 605 x 633 km, 82.5° (Epoch: 17 September)

Event Time Altitude Azimuth Distance (km) Brightness Sun altitude
Rises 23:03:34 0° 207° (SSW) 2,922 6.8 -12.7°
Reaches altitude 10° 23:05:51 10° 212° (SSW) 2,016 6.0 -12.9°
Maximum altitude 23:10:14 54° 290° (WNW) 773 4.4 -13.2°
Drops below altitude 10° 23:14:38 10° 9° (N) 2,018 6.9 -13.5°
Sets 23:16:55 0° 14° (NNE) 2,925 7.7 -13.7°
